Flag for U.S.A. Weather past 2 weeks in New Bedford, Massachusetts, U.S.A.

Now
52 °F

Passing clouds.


Feels Like: 52 °F
Forecast: 47 / 70 °F
Wind: No wind

Location: New Bedford Regional Airport

Current Time: May 6, 2015 at 4:27:46 AM

Latest Report: May 6, 2015 at 3:53 AM


Visibility: 10 mi

Pressure: 30.20 "Hg

Humidity: 93%

Dew point: 50 °F

Location of New BedfordLocation

Historic Weather in New Bedford — Graph

°F

New Bedford temperature yesterday

Maximum temperature yesterday: 74 °F (at 1:53 PM)
Minimum temperature yesterday: 53 °F (at 11:53 PM)
Average temperature yesterday: 63 °F

Past Weeks' High & Low Weather Summary

 TemperatureHumidityPressure
High74 °F (May 5, 1:53 PM)100% (Apr 21, 2:53 AM)30.22 "Hg (Apr 21, 2:53 AM)
Low33 °F (Apr 26, 2:53 AM)30% (Apr 25, 2:53 PM)29.51 "Hg (Apr 27, 3:53 PM)
Average50 °F65%29.82 "Hg
* Reported Apr 21 2:53 AM — May 6 2:53 AM, New Bedford, Weather by CustomWeather, © 2015

Note: Actual official high and low records may vary slightly from our data, if they occured in-between our weather recording intervals... More about our weather records

Advertising

New Bedford weather history for previous 24 hours

 ConditionsComfort  
Time TempWeatherWind HumidityBarometerVisibility
2:53 AM
Wed, May 6
52 °FPassing clouds.3 mph89%30.19 "Hg10 mi
1:53 AM50 °FClear.No wind93%30.20 "Hg10 mi
12:53 AM52 °FClear.No wind89%30.21 "Hg10 mi
11:53 PM
Tue, May 5
53 °FClear.No wind86%30.22 "Hg10 mi
10:53 PM54 °FClear.No wind83%30.22 "Hg10 mi
9:53 PM55 °FClear.3 mph80%30.21 "Hg10 mi
8:53 PM57 °FPassing clouds.No wind74%30.20 "Hg10 mi
7:53 PM61 °FSunny.8 mph70%30.17 "Hg10 mi
6:53 PM63 °FSunny.8 mph68%30.15 "Hg10 mi
5:53 PM66 °FSunny.12 mph61%30.14 "Hg10 mi
4:53 PM70 °FSunny.13 mph55%30.15 "Hg10 mi
3:53 PM71 °FSunny.15 mph53%30.16 "Hg10 mi
2:53 PM73 °FPartly sunny.10 mph51%30.17 "Hg10 mi
1:53 PM74 °FScattered clouds.10 mph50%30.19 "Hg10 mi
12:53 PM72 °FPartly sunny.3 mph53%30.20 "Hg10 mi
11:53 AM70 °FMostly cloudy.8 mph55%30.20 "Hg10 mi
10:53 AM73 °FPartly sunny.7 mph48%30.19 "Hg10 mi
9:53 AM70 °FScattered clouds.7 mph49%30.18 "Hg10 mi
8:53 AM64 °FPassing clouds.3 mph56%30.18 "Hg10 mi
7:53 AM60 °FSunny.5 mph62%30.16 "Hg10 mi
6:53 AM59 °FSunny.5 mph62%30.15 "Hg10 mi
5:53 AM58 °FClear.6 mph60%30.13 "Hg10 mi
4:53 AM56 °FClear.8 mph65%30.13 "Hg10 mi
Weather by CustomWeather, © 2015

See weather overviewHow to use our weather pages